This is the latest recevied weather packets stored in our database for station/object OK2CME-6. If no packets are shown the sender has not sent any weather packets the latest 10 day(s).
| Time | Temp. | Humidity | Pressure | Rain* | Wind** | Luminosity | Snow |
|---|---|---|---|---|---|---|---|
| 1777592199 | 6.11° C | 59% | 1030.6 hPa | 0 mm | - | 0 W/m² | - |
| 1777590999 | 6.11° C | 59% | 1030.7 hPa | 0 mm | - | 0 W/m² | - |
| 1777589799 | 6.11° C | 59% | 1030.6 hPa | 0 mm | - | 0 W/m² | - |
| 1777588599 | 6.11° C | 59% | 1031.2 hPa | 0 mm | - | 0 W/m² | - |
| 1777587399 | 6.11° C | 58% | 1030.9 hPa | 0 mm | - | 0 W/m² | - |
| 1777586199 | 6.11° C | 58% | 1031.1 hPa | 0 mm | - | 0 W/m² | - |
| 1777584999 | 6.67° C | 56% | 1030.7 hPa | 0 mm | - | 0 W/m² | - |
| 1777583799 | 6.67° C | 56% | 1030.7 hPa | 0 mm | - | 0 W/m² | - |
| 1777582599 | 7.22° C | 53% | 1030.8 hPa | 0 mm | - | 0 W/m² | - |
| 1777581399 | 7.22° C | 52% | 1030.9 hPa | 0 mm | - | 0 W/m² | - |
| 1777580199 | 6.67° C | 50% | 1030.8 hPa | 0 mm | - | 0 W/m² | - |
| 1777578999 | 7.22° C | 49% | 1031 hPa | 0 mm | - | 0 W/m² | - |
| 1777577799 | 7.78° C | 48% | 1030.6 hPa | 0 mm | - | 0 W/m² | - |
| 1777576599 | 8.33° C | 45% | 1030.5 hPa | 0 mm | - | 0 W/m² | - |
| 1777575399 | 8.33° C | 44% | 1030.4 hPa | 0 mm | - | 0 W/m² | - |
| 1777574199 | 8.89° C | 42% | 1030.2 hPa | 0 mm | - | 1 W/m² | - |
| 1777572999 | 9.44° C | 40% | 1030.3 hPa | 0 mm | - | 7 W/m² | - |
| 1777571799 | 10.56° C | 38% | 1030 hPa | 0 mm | - | 16 W/m² | - |
| 1777570599 | 10.56° C | 36% | 1029.9 hPa | 0 mm | - | 26 W/m² | - |
| 1777569399 | 11.11° C | 35% | 1030.2 hPa | 0 mm | - | 35 W/m² | - |
| 1777568199 | 11.11° C | 33% | 1030 hPa | 0 mm | - | 40 W/m² | - |
| 1777566999 | 11.11° C | 33% | 1030 hPa | 0 mm | - | 82 W/m² | - |
| 1777565799 | 11.67° C | 34% | 1029.9 hPa | 0 mm | - | 74 W/m² | - |
| 1777564599 | 12.22° C | 32% | 1030.1 hPa | 0 mm | - | 105 W/m² | - |
| 1777563399 | 11.67° C | 33% | 1029.9 hPa | 0 mm | - | 242 W/m² | - |
* Rain latest hour (hover to see other rain measurements)
** Current wind speed in m/s (hover to see current wind gust speed)